Starlink 31390

operational
NORAD ID: 58937 Int'l Des: 2024-027 Owner: SPXS Country: US Constellation: starlink
LEOCIRCULAR

About Starlink 31390

Description loading...

Live Position

Loading 3D Globe...

Upcoming Passes

Altitude History

Altitude vs Time

uPlot chart will show altitude changes over time

Two-Line Element Set

1 58937U 24027G 25353.21369298 .00000418 00000-0 26231-4 0 9996
2 58937 53.1623 323.6710 0001215 82.9732 277.1407 15.30191466105006
Epoch: Dec 19, 2025 • Age: 25 hours

Current Status

Altitude 476.6 km
Velocity 7.63 km/s
Sub-Earth Point 31.65°N, 161.22°E
Launch Date Feb 10, 2024
Age 1.8 years
Type internet

Technical Details

Classification Payload
Mass 730.00 kg
Dry Mass 700.00 kg
Total Mass 730.00 kg
Length 0.30 m
Diameter 4.10 m
Span 29.00 m
Shape Box + pan
Manufacturer SPXS
Bus Type Starlink V2M
Phase Status In Orbit
Owner/State SPXS/US

Large Constellations

Loading constellations...